Weather History for Starkville, MS

Change the Weather History Date:

Friday, January 11, 2013

  Actual Average Record
Temperature  
Mean Temperature 62 °F -  
Max Temperature 66 °F 49 °F 66 °F (2013)
Min Temperature 59 °F 28 °F 33 °F (2014)
Degree Days  
Heating Degree Days 2    
Growing Degree Days 12 (Base 50)    
Moisture  
Dew Point 61 °F    
Average Humidity 95    
Maximum Humidity 100    
Minimum Humidity 83    
Precipitation  
Precipitation 0.02 in - - ()
Sea Level Pressure  
Sea Level Pressure 30.05 in    
Wind  
Wind Speed 5 mph (South)    
Max Wind Speed 10 mph    
Max Gust Speed 22 mph    
Visibility 7 miles    
Events Rain    
Averages and records for this station are not official NWS values.
T = Trace of Precipitation, MM = Missing Value Source: NWS Daily Summary

Daily Weather History Graph

Daily Weather History Graph

Search for Another Location

Airport:

Trip Planner

Search our weather history database for the weather conditions in past years. The results will help you decide how hot, cold, wet, or windy it might be!

Date:

Astronomy

Jan. 11, 2013 Rise Set
Actual Time 6:59 AM CST 5:07 PM CST
Civil Twilight 6:32 AM CST 5:34 PM CST
Nautical Twilight 6:02 AM CST 6:04 PM CST
Astronomical Twilight 5:32 AM CST 6:34 PM CST
Moon 6:34 AM CST (1/11) 5:22 PM CST (1/11)
Length of Visible Light 11h 01m
Length of Day
10h 07m
Waning Crescent, 0% of the Moon is Illuminated
Jan 11
Waning Crescent
Jan 11
New
Jan 18
First Quarter
Jan 26
Full
Feb 3
Last Quarter

Hourly Weather History & Observations

Time (CST) Temp. Dew Point Humidity Pressure Visibility Wind Dir Wind Speed Gust Speed Precip Events Conditions
12:15 AM 66.2 °F 60.8 °F 83% 30.03 in 10.0 mi South 8.1 mph 18.4 mph N/A   Overcast
12:35 AM 64.4 °F 60.8 °F 88% 30.04 in 7.0 mi SSW 10.4 mph 21.9 mph N/A Rain Rain
12:55 AM 62.6 °F 60.8 °F 94% 30.04 in 5.0 mi SSW 9.2 mph 16.1 mph N/A   Drizzle
1:15 AM 62.6 °F 60.8 °F 94% 30.04 in 7.0 mi South 9.2 mph 16.1 mph 0.01 in   Drizzle
1:35 AM 60.8 °F 60.8 °F 100% 30.04 in 5.0 mi SSW 5.8 mph - 0.01 in   Light Drizzle
1:55 AM 60.8 °F 60.8 °F 100% 30.04 in 10.0 mi South 6.9 mph 16.1 mph 0.01 in   Overcast
2:15 AM 60.8 °F 60.8 °F 100% 30.04 in 10.0 mi South 8.1 mph - N/A   Overcast
2:35 AM 62.6 °F 60.8 °F 94% 30.04 in 10.0 mi South 6.9 mph - N/A   Overcast
2:55 AM 62.6 °F 60.8 °F 94% 30.04 in 10.0 mi South 4.6 mph - N/A   Overcast
3:15 AM 60.8 °F 60.8 °F 100% 30.04 in 7.0 mi South 4.6 mph - N/A Rain Light Rain
3:35 AM 60.8 °F 59.0 °F 94% 30.04 in 5.0 mi South 4.6 mph - N/A   Light Drizzle
3:55 AM 60.8 °F 59.0 °F 94% 30.03 in 7.0 mi South 5.8 mph - N/A Rain Light Rain
4:15 AM 60.8 °F 59.0 °F 94% 30.03 in 5.0 mi Calm Calm - N/A   Light Drizzle
4:35 AM 60.8 °F 59.0 °F 94% 30.04 in 7.0 mi South 4.6 mph - N/A   Overcast
4:55 AM 60.8 °F 59.0 °F 94% 30.03 in 5.0 mi South 4.6 mph - N/A Rain Rain
5:15 AM 60.8 °F 59.0 °F 94% 30.04 in 7.0 mi South 5.8 mph - N/A   Overcast
5:35 AM 60.8 °F 59.0 °F 94% 30.04 in 7.0 mi South 3.5 mph - N/A Rain Rain
5:55 AM 60.8 °F 59.0 °F 94% 30.05 in 5.0 mi South 3.5 mph - N/A Rain Rain
6:15 AM 60.8 °F 59.0 °F 94% 30.06 in 10.0 mi Calm Calm - N/A   Overcast
6:35 AM 59.0 °F 59.0 °F 100% 30.07 in 3.0 mi Calm Calm - N/A   Overcast
6:55 AM 59.0 °F 59.0 °F 100% 30.07 in 2.5 mi Calm Calm - N/A   Drizzle
7:15 AM 59.0 °F 59.0 °F 100% 30.07 in 2.5 mi Calm Calm - N/A   Drizzle
7:35 AM 59.0 °F 59.0 °F 100% 30.07 in 2.5 mi Calm Calm - N/A Rain Light Rain
7:55 AM 59.0 °F 59.0 °F 100% 30.08 in 2.0 mi Calm Calm - 0.01 in   Light Drizzle
8:15 AM 60.8 °F 59.0 °F 94% 30.09 in 1.0 mi Calm Calm - N/A   Light Drizzle
8:35 AM 59.0 °F 59.0 °F 100% 30.09 in 1.8 mi Calm Calm - N/A   Light Drizzle
8:55 AM 59.0 °F 59.0 °F 100% 30.09 in 4.0 mi Calm Calm - N/A   Overcast
9:15 AM 59.0 °F 59.0 °F 100% 30.09 in 5.0 mi Calm Calm - N/A   Overcast
9:35 AM 59.0 °F 59.0 °F 100% 30.11 in 5.0 mi West 3.5 mph - N/A   Overcast
9:55 AM 59.0 °F 59.0 °F 100% 30.10 in 5.0 mi Calm Calm - N/A   Overcast
10:15 AM 60.8 °F 59.0 °F 94% 30.10 in 10.0 mi Calm Calm - N/A   Overcast
10:35 AM 60.8 °F 59.0 °F 94% 30.10 in 10.0 mi Calm Calm - N/A   Overcast
10:55 AM 60.8 °F 60.8 °F 100% 30.09 in 10.0 mi Calm Calm - N/A   Overcast
11:15 AM 60.8 °F 60.8 °F 100% 30.08 in 10.0 mi Calm Calm - N/A   Overcast
11:55 AM 62.6 °F 60.8 °F 94% 30.07 in 10.0 mi Calm Calm - N/A   Overcast
12:15 PM 62.6 °F 62.6 °F 100% 30.06 in 10.0 mi South 3.5 mph - N/A   Overcast
12:35 PM 64.4 °F 62.6 °F 94% 30.05 in 10.0 mi South 3.5 mph - N/A   Overcast
12:55 PM 66.2 °F 62.6 °F 88% 30.04 in 10.0 mi South 5.8 mph - N/A   Overcast
1:15 PM 66.2 °F 62.6 °F 88% 30.03 in 10.0 mi SSE 6.9 mph - N/A Rain Light Rain
1:35 PM 66.2 °F 62.6 °F 88% 30.04 in 10.0 mi South 8.1 mph - N/A Rain Light Rain
1:55 PM 64.4 °F 60.8 °F 88% 30.03 in 10.0 mi South 10.4 mph - N/A   Overcast
2:15 PM 64.4 °F 59.0 °F 83% 30.04 in 10.0 mi Calm Calm - N/A   Overcast
2:35 PM 64.4 °F 60.8 °F 88% 30.04 in 10.0 mi South 4.6 mph - N/A   Overcast
2:55 PM 64.4 °F 60.8 °F 88% 30.04 in 10.0 mi South 5.8 mph - N/A Rain Light Rain
3:15 PM 64.4 °F 60.8 °F 88% 30.03 in 10.0 mi South 4.6 mph - N/A   Overcast
3:35 PM 64.4 °F 60.8 °F 88% 30.03 in 10.0 mi South 4.6 mph - N/A   Overcast
3:55 PM 64.4 °F 60.8 °F 88% 30.03 in 10.0 mi SSE 5.8 mph - N/A   Overcast
4:15 PM 64.4 °F 60.8 °F 88% 30.02 in 10.0 mi SSE 5.8 mph - N/A   Overcast
4:35 PM 64.4 °F 62.6 °F 94% 30.02 in 10.0 mi SSE 5.8 mph - N/A   Overcast
4:55 PM 64.4 °F 62.6 °F 94% 30.02 in 10.0 mi South 3.5 mph - N/A   Overcast
5:15 PM 64.4 °F 60.8 °F 88% 30.03 in 10.0 mi SSE 3.5 mph - N/A   Overcast
5:35 PM 62.6 °F 60.8 °F 94% 30.03 in 7.0 mi SSE 4.6 mph - N/A Rain Light Rain
5:55 PM 62.6 °F 60.8 °F 94% 30.03 in 10.0 mi SSE 5.8 mph - N/A   Overcast
6:15 PM 62.6 °F 60.8 °F 94% 30.03 in 10.0 mi SSE 6.9 mph - N/A   Overcast
6:35 PM 62.6 °F 60.8 °F 94% 30.04 in - SSE 5.8 mph - N/A   Overcast
6:55 PM 62.6 °F 60.8 °F 94% 30.04 in 10.0 mi SSE 4.6 mph - N/A   Overcast
7:15 PM 62.6 °F 60.8 °F 94% 30.04 in - SSE 4.6 mph - N/A   Unknown
7:35 PM 60.8 °F 60.8 °F 100% 30.04 in 10.0 mi SSE 4.6 mph - N/A   Mostly Cloudy
7:55 PM 62.6 °F 60.8 °F 94% 30.04 in 10.0 mi SSE 4.6 mph - N/A   Overcast
8:15 PM 60.8 °F 60.8 °F 100% 30.03 in 4.0 mi SSE 4.6 mph - N/A   Overcast
8:35 PM 62.6 °F 60.8 °F 94% 30.03 in 2.0 mi SSE 4.6 mph - N/A   Overcast
8:55 PM 62.6 °F 60.8 °F 94% 30.02 in 0.8 mi SSE 3.5 mph - N/A   Overcast
9:15 PM 62.6 °F 60.8 °F 94% 30.03 in 1.0 mi SSE 4.6 mph - N/A   Overcast
9:35 PM 62.6 °F 62.6 °F 100% 30.03 in 1.0 mi SSE 4.6 mph - N/A   Overcast
9:55 PM 62.6 °F 62.6 °F 100% 30.03 in 1.2 mi SSE 5.8 mph - N/A   Overcast
10:15 PM 62.6 °F 62.6 °F 100% 30.03 in 1.2 mi South 5.8 mph - N/A   Overcast
10:35 PM 62.6 °F 62.6 °F 100% 30.02 in 1.8 mi SSE 5.8 mph - N/A   Overcast
10:55 PM 62.6 °F 62.6 °F 100% 30.02 in 3.0 mi SSE 8.1 mph - N/A   Overcast
11:15 PM 62.6 °F 62.6 °F 100% 30.02 in 7.0 mi SSE 6.9 mph - N/A   Overcast
11:35 PM 62.6 °F 62.6 °F 100% 30.02 in 7.0 mi SSE 5.8 mph - N/A   Overcast
11:55 PM 62.6 °F 62.6 °F 100% 30.02 in 7.0 mi SSE 6.9 mph - N/A   Overcast